Preview of NWS' New Version of Forecast
This preview is not operational and should not be used for support decisions.

Regional Weather Roundup (RWR)

Issued by Charleston, WV (RLX)

                            
000
ASUS41 KRLX 160810
RWRRLX
Regional Weather Roundup
National Weather Service Charleston WV
400 AM EDT TUE OCT 16 2018

Note: "fair" indicates few or no clouds below 12,000 feet with no
significant weather and/or obstructions to visibility.

WVZ003-160900-
Northern Panhandle of West Virginia
  
CITY           SKY/WX    TMP DP  RH WIND       PRES   REMARKS
WHEELING       FAIR      40  35  83 NW7       30.22S                  
$$

WVZ009-160900-
Northwest West Virginia
  
CITY           SKY/WX    TMP DP  RH WIND       PRES   REMARKS
PARKERSBURG    FAIR      44  38  79 NW3       30.27F                  
$$

WVZ006-160900-
Western West Virginia
  
CITY           SKY/WX    TMP DP  RH WIND       PRES   REMARKS
HUNTINGTON     FAIR      46  39  76 N7        30.26S                  
$$

WVZ015-160900-
West Central West Virginia
  
CITY           SKY/WX    TMP DP  RH WIND       PRES   REMARKS
CHARLESTON     MOCLDY    48  46  93 NW5       30.23S                  
$$

WVZ022-031-160900-
North Central West Virginia
  
CITY           SKY/WX    TMP DP  RH WIND       PRES   REMARKS
MORGANTOWN     MOCLDY    45  41  86 CALM      30.22S                  
CLARKSBURG     CLOUDY    48  43  82 W5        30.21S                  
BUCKHANNON     CLOUDY    46  46 100 NW6       30.21S                  
$$

WVZ025-035-042-045-160900-
Southern West Virginia
  
CITY           SKY/WX    TMP DP  RH WIND       PRES   REMARKS
BECKLEY        FOG       47  45  93 NE6       30.20F VSB 1/4          
LOGAN          CLOUDY    50  48  93 CALM      30.22S                  
PINEVILLE      CLOUDY    52  50  93 MISG      30.25F FOG              
BLUEFIELD      CLOUDY    48  48 100 VRB3      30.21R FOG              
LEWISBURG      CLOUDY    51  48  88 W5        30.19S                  
$$

WVZ047-160900-
Northern Mountains of West Virginia
  
CITY           SKY/WX    TMP DP  RH WIND       PRES   REMARKS
ELKINS         FAIR      45  42  89 NW6       30.20F                  
$$

WVZ052-160900-
Eastern Panhandle of West Virginia
  
CITY           SKY/WX    TMP DP  RH WIND       PRES   REMARKS
MARTINSBURG    FAIR      53  40  61 NW7       30.15R                  
PETERSBURG     MOCLDY    53  42  66 W10       30.16F                  
$$

Southeast Ohio/Northeast Kentucky
  
CITY           SKY/WX    TMP DP  RH WIND       PRES   REMARKS
ATHENS         FAIR      42  42 100 CALM      30.26R                  
ASHLAND        FAIR      44  41  89 W3        30.27F                  
$$